Weather History for KACK - February, 2012

Change the Weather History Date:

Sunday, February 26, 2012

  Actual Average Record
Temperature  
Mean Temperature 36 °F -  
Max Temperature 42 °F 40 °F 54 °F (1957)
Min Temperature 30 °F 26 °F 11 °F (1967)
Degree Days  
Heating Degree Days 29    
Moisture  
Dew Point 13 °F    
Average Humidity 40    
Maximum Humidity 56    
Minimum Humidity 27    
Precipitation  
Precipitation 0.00 in - - ()
Sea Level Pressure  
Sea Level Pressure 30.21 in    
Wind  
Wind Speed 19 mph (WNW)    
Max Wind Speed 28 mph    
Max Gust Speed 37 mph    
Visibility 10 miles    
Events      
Averages and records for this station are not official NWS values.
T = Trace of Precipitation, MM = Missing Value Source: NWS Daily Summary

Daily Weather History Graph

Daily Weather History Graph

Search for Another Location

Airport or City:

Trip Planner

Search our weather history database for the weather conditions in past years. The results will help you decide how hot, cold, wet, or windy it might be!

Date:

Astronomy

Feb. 26, 2012 Rise Set
Actual Time 6:20 AM EST 5:26 PM EST
Civil Twilight 5:52 AM EST 5:54 PM EST
Nautical Twilight 5:20 AM EST 6:26 PM EST
Astronomical Twilight 4:48 AM EST 6:58 PM EST
Moon 8:09 AM EST (2/26) 10:25 PM EST (2/26)
Length of Visible Light 12h 02m
Length of Day
11h 06m
Waxing Crescent, 20% of the Moon is Illuminated
Feb 26
Waxing Crescent
Feb 29
First Quarter
Mar 8
Full
Mar 14
Last Quarter
Mar 22
New

Hourly Weather History & Observations

Time (EST) Temp. Windchill Dew Point Humidity Pressure Visibility Wind Dir Wind Speed Gust Speed Precip Events Conditions
12:53 AM 34.0 °F 21.5 °F 19.0 °F 54% 29.83 in 10.0 mi WNW 24.2 mph 32.2 mph N/A   Scattered Clouds
1:53 AM 33.1 °F 21.2 °F 19.0 °F 56% 29.86 in 10.0 mi WNW 20.7 mph 33.4 mph N/A   Clear
2:53 AM 32.0 °F 20.1 °F 17.1 °F 54% 29.90 in 10.0 mi WNW 19.6 mph 35.7 mph N/A   Clear
3:53 AM 32.0 °F 20.1 °F 17.1 °F 54% 29.95 in 10.0 mi WNW 19.6 mph 28.8 mph N/A   Clear
4:53 AM 30.9 °F 19.4 °F 15.1 °F 52% 30.00 in 10.0 mi WNW 17.3 mph 29.9 mph N/A   Clear
5:53 AM 30.9 °F 17.5 °F 14.0 °F 50% 30.05 in 10.0 mi WNW 24.2 mph 31.1 mph N/A   Clear
6:53 AM 30.9 °F 18.7 °F 12.0 °F 46% 30.11 in 10.0 mi WNW 19.6 mph 35.7 mph N/A   Clear
7:53 AM 33.8 °F 22.2 °F 10.4 °F 38% 30.15 in 10.0 mi WNW 20.7 mph 33.4 mph N/A   Clear
8:53 AM 35.1 °F 22.2 °F 10.9 °F 37% 30.17 in 10.0 mi WNW 27.6 mph 36.8 mph N/A   Clear
9:53 AM 36.0 °F 24.7 °F 9.0 °F 33% 30.20 in 10.0 mi WNW 21.9 mph 36.8 mph N/A   Clear
10:53 AM 37.0 °F 25.9 °F 9.0 °F 31% 30.24 in 10.0 mi WNW 23.0 mph 36.8 mph N/A   Clear
11:53 AM 39.0 °F 29.0 °F 9.0 °F 29% 30.26 in 10.0 mi WNW 20.7 mph 31.1 mph N/A   Clear
12:53 PM 39.9 °F 30.5 °F 10.0 °F 29% 30.26 in 10.0 mi WNW 19.6 mph 28.8 mph N/A   Clear
1:53 PM 39.9 °F 29.7 °F 10.0 °F 29% 30.26 in 10.0 mi NW 23.0 mph 29.9 mph N/A   Clear
2:53 PM 42.1 °F 33.6 °F 10.0 °F 27% 30.28 in 10.0 mi NW 18.4 mph 28.8 mph N/A   Clear
3:53 PM 41.0 °F 32.2 °F 9.0 °F 27% 30.30 in 10.0 mi WNW 18.4 mph 26.5 mph N/A   Clear
4:53 PM 39.0 °F 32.3 °F 8.1 °F 28% 30.34 in 10.0 mi West 10.4 mph - N/A   Clear
5:53 PM 37.0 °F 29.8 °F 10.9 °F 34% 30.36 in 10.0 mi West 10.4 mph - N/A   Clear
6:53 PM 36.0 °F 29.0 °F 12.9 °F 39% 30.38 in 10.0 mi WNW 9.2 mph - N/A   Clear
7:53 PM 35.1 °F 28.6 °F 12.9 °F 40% 30.41 in 10.0 mi West 8.1 mph - N/A   Clear
8:53 PM 35.1 °F 28.6 °F 14.0 °F 42% 30.42 in 10.0 mi WNW 8.1 mph - N/A   Clear
9:53 PM 35.1 °F 32.2 °F 14.0 °F 42% 30.44 in 10.0 mi WNW 3.5 mph - N/A   Clear
10:53 PM 34.0 °F - 12.9 °F 42% 30.44 in 10.0 mi Calm Calm - N/A   Clear
11:53 PM 32.0 °F 26.4 °F 15.1 °F 50% 30.45 in 10.0 mi West 5.8 mph - N/A   Clear